Time,TemperatureF,DewpointF,PressureIn,WindDirection,WindDirectionDegrees,WindSpeedMPH,WindSpeedGustMPH,Humidity,HourlyPrecipIn,Conditions,Clouds,dailyrainin,SoftwareType,DateUTC
2013-04-26 00:01:00,49.5,38.3,30.35,SE,129,0.0,3.0,65,0.00,,,0.00,WUHU216DAVISVP2,2013-04-26 05:01:00,
2013-04-26 00:06:00,49.5,38.3,30.35,ESE,102,1.0,3.0,65,0.00,,,0.00,WUHU216DAVISVP2,2013-04-26 05:06:00,
2013-04-26 00:11:00,49.5,38.3,30.35,ESE,117,1.0,2.0,65,0.00,,,0.00,WUHU216DAVISVP2,2013-04-26 05:11:00,
2013-04-26 00:16:00,49.4,38.1,30.35,ESE,108,0.0,2.0,65,0.00,,,0.00,WUHU216DAVISVP2,2013-04-26 05:16:00,
2013-04-26 00:21:00,49.3,38.0,30.35,SE,135,0.0,3.0,65,0.00,,,0.00,WUHU216DAVISVP2,2013-04-26 05:21:00,
2013-04-26 00:26:00,49.2,38.0,30.35,ESE,118,1.0,3.0,65,0.00,,,0.00,WUHU216DAVISVP2,2013-04-26 05:26:00,
2013-04-26 00:31:00,49.1,37.9,30.35,ESE,116,0.0,2.0,65,0.00,,,0.00,WUHU216DAVISVP2,2013-04-26 05:31:00,
2013-04-26 00:36:00,48.9,38.1,30.35,ESE,117,1.0,2.0,66,0.00,,,0.00,WUHU216DAVISVP2,2013-04-26 05:36:00,
2013-04-26 00:41:00,48.8,38.0,30.35,SE,134,0.0,2.0,66,0.00,,,0.00,WUHU216DAVISVP2,2013-04-26 05:41:00,
2013-04-26 00:46:00,48.7,38.0,30.35,ESE,120,0.0,2.0,66,0.00,,,0.00,WUHU216DAVISVP2,2013-04-26 05:46:00,
2013-04-26 00:51:00,48.4,37.7,30.35,ESE,121,0.0,0.0,66,0.00,,,0.00,WUHU216DAVISVP2,2013-04-26 05:51:00,
2013-04-26 00:56:00,48.4,37.7,30.35,East,94,1.0,3.0,66,0.00,,,0.00,WUHU216DAVISVP2,2013-04-26 05:56:00,
2013-04-26 01:01:00,48.5,37.8,30.35,ENE,77,1.0,3.0,66,0.00,,,0.00,WUHU216DAVISVP2,2013-04-26 06:01:00,
2013-04-26 01:06:00,48.4,37.6,30.35,ESE,108,1.0,1.0,66,0.00,,,0.00,WUHU216DAVISVP2,2013-04-26 06:06:00,
2013-04-26 01:11:00,48.3,37.5,30.35,ESE,110,0.0,1.0,66,0.00,,,0.00,WUHU216DAVISVP2,2013-04-26 06:11:00,
2013-04-26 01:16:00,48.3,37.8,30.34,SE,124,0.0,0.0,67,0.00,,,0.00,WUHU216DAVISVP2,2013-04-26 06:16:00,
2013-04-26 01:21:00,48.2,37.5,30.34,East,101,1.0,1.0,66,0.00,,,0.00,WUHU216DAVISVP2,2013-04-26 06:21:00,
2013-04-26 01:26:00,48.1,37.8,30.34,ESE,120,1.0,2.0,67,0.00,,,0.00,WUHU216DAVISVP2,2013-04-26 06:26:00,
2013-04-26 01:31:00,47.9,37.9,30.34,ESE,105,0.0,2.0,68,0.00,,,0.00,WUHU216DAVISVP2,2013-04-26 06:31:00,
2013-04-26 01:36:00,47.9,37.9,30.34,ESE,110,1.0,1.0,68,0.00,,,0.00,WUHU216DAVISVP2,2013-04-26 06:36:00,
2013-04-26 01:41:00,47.9,37.6,30.34,ESE,111,0.0,1.0,67,0.00,,,0.00,WUHU216DAVISVP2,2013-04-26 06:41:00,
2013-04-26 01:46:00,47.8,37.9,30.35,ESE,117,0.0,1.0,68,0.00,,,0.00,WUHU216DAVISVP2,2013-04-26 06:46:00,
2013-04-26 01:51:00,47.6,37.3,30.35,ESE,117,0.0,1.0,67,0.00,,,0.00,WUHU216DAVISVP2,2013-04-26 06:51:00,
2013-04-26 01:56:00,47.5,37.2,30.34,ESE,117,0.0,0.0,67,0.00,,,0.00,WUHU216DAVISVP2,2013-04-26 06:56:00,
2013-04-26 02:01:00,47.4,37.1,30.35,SE,146,0.0,0.0,67,0.00,,,0.00,WUHU216DAVISVP2,2013-04-26 07:01:00,
2013-04-26 02:06:00,47.3,37.3,30.35,SE,146,0.0,0.0,68,0.00,,,0.00,WUHU216DAVISVP2,2013-04-26 07:06:00,
2013-04-26 02:11:00,47.2,36.8,30.35,SSE,153,0.0,0.0,67,0.00,,,0.00,WUHU216DAVISVP2,2013-04-26 07:11:00,
2013-04-26 02:16:00,47.2,36.9,30.35,SSE,153,0.0,0.0,67,0.00,,,0.00,WUHU216DAVISVP2,2013-04-26 07:16:00,
2013-04-26 02:21:00,47.1,36.8,30.35,SSE,153,0.0,0.0,67,0.00,,,0.00,WUHU216DAVISVP2,2013-04-26 07:21:00,
2013-04-26 02:26:00,47.0,36.7,30.35,SSE,153,0.0,0.0,67,0.00,,,0.00,WUHU216DAVISVP2,2013-04-26 07:26:00,
2013-04-26 02:31:00,47.1,36.8,30.35,SSE,149,0.0,0.0,67,0.00,,,0.00,WUHU216DAVISVP2,2013-04-26 07:31:00,
2013-04-26 02:36:00,47.1,36.8,30.35,ESE,123,0.0,0.0,67,0.00,,,0.00,WUHU216DAVISVP2,2013-04-26 07:36:00,
2013-04-26 02:41:00,47.1,36.8,30.35,ESE,123,0.0,0.0,67,0.00,,,0.00,WUHU216DAVISVP2,2013-04-26 07:41:00,
2013-04-26 02:46:00,47.1,36.8,30.35,SE,132,1.0,1.0,67,0.00,,,0.00,WUHU216DAVISVP2,2013-04-26 07:46:00,
2013-04-26 02:51:00,47.3,36.6,30.35,ESE,112,1.0,1.0,66,0.00,,,0.00,WUHU216DAVISVP2,2013-04-26 07:51:00,
2013-04-26 02:56:00,47.5,36.4,30.35,ESE,107,1.0,1.0,65,0.00,,,0.00,WUHU216DAVISVP2,2013-04-26 07:56:00,
2013-04-26 03:01:00,47.7,37.0,30.34,ESE,118,0.0,2.0,66,0.00,,,0.00,WUHU216DAVISVP2,2013-04-26 08:01:00,
2013-04-26 03:06:00,47.9,36.7,30.34,ESE,115,2.0,4.0,65,0.00,,,0.00,WUHU216DAVISVP2,2013-04-26 08:06:00,
2013-04-26 03:11:00,48.1,37.0,30.34,East,97,1.0,4.0,65,0.00,,,0.00,WUHU216DAVISVP2,2013-04-26 08:11:00,
2013-04-26 03:16:00,48.2,37.1,30.34,ESE,111,0.0,3.0,65,0.00,,,0.00,WUHU216DAVISVP2,2013-04-26 08:16:00,
2013-04-26 03:21:00,48.3,37.2,30.34,ESE,111,3.0,3.0,65,0.00,,,0.00,WUHU216DAVISVP2,2013-04-26 08:21:00,
2013-04-26 03:26:00,48.4,37.3,30.34,SE,132,1.0,4.0,65,0.00,,,0.00,WUHU216DAVISVP2,2013-04-26 08:26:00,
2013-04-26 03:31:00,48.4,37.3,30.34,East,101,0.0,4.0,65,0.00,,,0.00,WUHU216DAVISVP2,2013-04-26 08:31:00,
2013-04-26 03:36:00,48.4,37.3,30.34,East,99,1.0,3.0,65,0.00,,,0.00,WUHU216DAVISVP2,2013-04-26 08:36:00,
2013-04-26 03:41:00,48.4,37.3,30.34,SE,126,1.0,3.0,65,0.00,,,0.00,WUHU216DAVISVP2,2013-04-26 08:41:00,
2013-04-26 03:46:00,48.4,37.3,30.34,SE,136,1.0,2.0,65,0.00,,,0.00,WUHU216DAVISVP2,2013-04-26 08:46:00,
2013-04-26 03:51:00,48.5,37.4,30.34,ESE,115,0.0,2.0,65,0.00,,,0.00,WUHU216DAVISVP2,2013-04-26 08:51:00,
2013-04-26 03:56:00,48.4,37.3,30.33,ESE,120,2.0,2.0,65,0.00,,,0.00,WUHU216DAVISVP2,2013-04-26 08:56:00,
2013-04-26 04:01:00,48.4,36.9,30.33,SE,135,1.0,3.0,64,0.00,,,0.00,WUHU216DAVISVP2,2013-04-26 09:01:00,
2013-04-26 04:06:00,48.5,37.3,30.33,SE,139,2.0,3.0,65,0.00,,,0.00,WUHU216DAVISVP2,2013-04-26 09:06:00,
2013-04-26 04:11:00,48.4,37.2,30.33,SE,146,0.0,3.0,65,0.00,,,0.00,WUHU216DAVISVP2,2013-04-26 09:11:00,
2013-04-26 04:16:00,48.3,37.2,30.33,ESE,113,1.0,3.0,65,0.00,,,0.00,WUHU216DAVISVP2,2013-04-26 09:16:00,
2013-04-26 04:21:00,48.3,37.2,30.33,SE,127,1.0,3.0,65,0.00,,,0.00,WUHU216DAVISVP2,2013-04-26 09:21:00,
2013-04-26 04:26:00,48.1,37.4,30.33,ESE,114,0.0,3.0,66,0.00,,,0.00,WUHU216DAVISVP2,2013-04-26 09:26:00,
2013-04-26 04:31:00,47.9,37.2,30.33,SE,129,1.0,2.0,66,0.00,,,0.00,WUHU216DAVISVP2,2013-04-26 09:31:00,
2013-04-26 04:36:00,47.7,37.3,30.33,SE,133,0.0,1.0,67,0.00,,,0.00,WUHU216DAVISVP2,2013-04-26 09:36:00,
2013-04-26 04:41:00,47.5,37.2,30.33,ENE,78,1.0,1.0,67,0.00,,,0.00,WUHU216DAVISVP2,2013-04-26 09:41:00,
2013-04-26 04:46:00,47.5,37.2,30.33,ESE,113,2.0,2.0,67,0.00,,,0.00,WUHU216DAVISVP2,2013-04-26 09:46:00,
2013-04-26 04:51:00,47.6,37.3,30.33,East,80,1.0,3.0,67,0.00,,,0.00,WUHU216DAVISVP2,2013-04-26 09:51:00,
2013-04-26 04:56:00,47.6,37.3,30.33,SE,131,1.0,3.0,67,0.00,,,0.00,WUHU216DAVISVP2,2013-04-26 09:56:00,
2013-04-26 05:01:00,47.4,37.1,30.33,SE,131,1.0,2.0,67,0.00,,,0.00,WUHU216DAVISVP2,2013-04-26 10:01:00,
2013-04-26 05:06:00,47.3,37.4,30.33,SSE,148,0.0,2.0,68,0.00,,,0.00,WUHU216DAVISVP2,2013-04-26 10:06:00,
2013-04-26 05:11:00,47.2,37.3,30.33,ESE,121,1.0,1.0,68,0.00,,,0.00,WUHU216DAVISVP2,2013-04-26 10:11:00,
2013-04-26 05:16:00,47.3,37.4,30.33,ESE,120,0.0,3.0,68,0.00,,,0.00,WUHU216DAVISVP2,2013-04-26 10:16:00,
2013-04-26 05:21:00,47.2,37.3,30.34,SE,140,0.0,3.0,68,0.00,,,0.00,WUHU216DAVISVP2,2013-04-26 10:21:00,
2013-04-26 05:26:00,47.1,37.1,30.34,ESE,109,0.0,1.0,68,0.00,,,0.00,WUHU216DAVISVP2,2013-04-26 10:26:00,
2013-04-26 05:31:00,47.2,37.2,30.34,East,96,2.0,2.0,68,0.00,,,0.00,WUHU216DAVISVP2,2013-04-26 10:31:00,
2013-04-26 05:36:00,47.2,37.6,30.33,East,100,0.0,2.0,69,0.00,,,0.00,WUHU216DAVISVP2,2013-04-26 10:36:00,
2013-04-26 05:41:00,47.1,37.5,30.34,East,101,2.0,2.0,69,0.00,,,0.00,WUHU216DAVISVP2,2013-04-26 10:41:00,
2013-04-26 05:46:00,47.1,37.5,30.34,SE,134,0.0,2.0,69,0.00,,,0.00,WUHU216DAVISVP2,2013-04-26 10:46:00,
2013-04-26 05:51:00,47.1,37.5,30.34,ESE,103,1.0,2.0,69,0.00,,,0.00,WUHU216DAVISVP2,2013-04-26 10:51:00,
2013-04-26 05:56:00,47.1,37.5,30.34,SE,131,0.0,2.0,69,0.00,,,0.00,WUHU216DAVISVP2,2013-04-26 10:56:00,
2013-04-26 06:01:00,47.2,37.6,30.34,ESE,113,1.0,2.0,69,0.00,,,0.00,WUHU216DAVISVP2,2013-04-26 11:01:00,
2013-04-26 06:06:00,47.1,37.5,30.34,ESE,112,1.0,2.0,69,0.00,,,0.00,WUHU216DAVISVP2,2013-04-26 11:06:00,
2013-04-26 06:11:00,47.1,37.5,30.34,East,91,1.0,2.0,69,0.00,,,0.00,WUHU216DAVISVP2,2013-04-26 11:11:00,
2013-04-26 06:16:00,46.9,37.7,30.34,East,82,2.0,3.0,70,0.00,,,0.00,WUHU216DAVISVP2,2013-04-26 11:16:00,
2013-04-26 06:21:00,46.7,37.2,30.33,East,99,1.0,3.0,69,0.00,,,0.00,WUHU216DAVISVP2,2013-04-26 11:21:00,
2013-04-26 06:26:00,47.1,37.5,30.33,ESE,113,1.0,3.0,69,0.00,,,0.00,WUHU216DAVISVP2,2013-04-26 11:26:00,
2013-04-26 06:31:00,47.3,37.7,30.33,East,95,1.0,3.0,69,0.00,,,0.00,WUHU216DAVISVP2,2013-04-26 11:31:00,
2013-04-26 06:36:00,47.4,37.8,30.34,SE,138,1.0,3.0,69,0.00,,,0.00,WUHU216DAVISVP2,2013-04-26 11:36:00,
2013-04-26 06:41:00,48.0,38.0,30.34,ESE,107,2.0,3.0,68,0.00,,,0.00,WUHU216DAVISVP2,2013-04-26 11:41:00,
2013-04-26 06:46:00,48.5,38.1,30.34,ESE,115,0.0,4.0,67,0.00,,,0.00,WUHU216DAVISVP2,2013-04-26 11:46:00,
2013-04-26 06:51:00,48.9,38.1,30.35,ESE,122,0.0,4.0,66,0.00,,,0.00,WUHU216DAVISVP2,2013-04-26 11:51:00,
2013-04-26 06:56:00,49.1,38.3,30.35,SE,125,0.0,4.0,66,0.00,,,0.00,WUHU216DAVISVP2,2013-04-26 11:56:00,
2013-04-26 07:01:00,49.2,38.8,30.35,ESE,104,0.0,2.0,67,0.00,,,0.00,WUHU216DAVISVP2,2013-04-26 12:01:00,
2013-04-26 07:06:00,49.6,39.2,30.36,ESE,114,0.0,1.0,67,0.00,,,0.00,WUHU216DAVISVP2,2013-04-26 12:06:00,
2013-04-26 07:11:00,50.5,39.3,30.36,East,101,0.0,1.0,65,0.00,,,0.00,WUHU216DAVISVP2,2013-04-26 12:11:00,
2013-04-26 07:16:00,51.4,39.2,30.36,East,101,0.0,1.0,63,0.00,,,0.00,WUHU216DAVISVP2,2013-04-26 12:16:00,
2013-04-26 07:21:00,52.1,39.1,30.36,SE,136,2.0,2.0,61,0.00,,,0.00,WUHU216DAVISVP2,2013-04-26 12:21:00,
2013-04-26 07:26:00,52.0,39.4,30.36,ESE,122,1.0,3.0,62,0.00,,,0.00,WUHU216DAVISVP2,2013-04-26 12:26:00,
2013-04-26 07:31:00,51.6,39.5,30.36,SE,134,1.0,3.0,63,0.00,,,0.00,WUHU216DAVISVP2,2013-04-26 12:31:00,
2013-04-26 07:36:00,51.4,38.5,30.36,SE,143,1.0,4.0,61,0.00,,,0.00,WUHU216DAVISVP2,2013-04-26 12:36:00,
2013-04-26 07:41:00,51.3,38.3,30.37,SSE,150,3.0,5.0,61,0.00,,,0.00,WUHU216DAVISVP2,2013-04-26 12:41:00,
2013-04-26 07:46:00,51.2,39.1,30.38,SE,137,1.0,5.0,63,0.00,,,0.00,WUHU216DAVISVP2,2013-04-26 12:46:00,
2013-04-26 07:51:00,51.2,38.7,30.38,SE,132,1.0,4.0,62,0.00,,,0.00,WUHU216DAVISVP2,2013-04-26 12:51:00,
2013-04-26 07:56:00,51.3,38.8,30.38,SE,134,1.0,4.0,62,0.00,,,0.00,WUHU216DAVISVP2,2013-04-26 12:56:00,
2013-04-26 08:01:00,51.5,39.0,30.38,ESE,120,0.0,4.0,62,0.00,,,0.00,WUHU216DAVISVP2,2013-04-26 13:01:00,
2013-04-26 08:06:00,51.9,40.6,30.39,ESE,105,0.0,4.0,65,0.00,,,0.00,WUHU216DAVISVP2,2013-04-26 13:06:00,
2013-04-26 08:11:00,52.2,40.5,30.39,West,276,0.0,4.0,64,0.00,,,0.00,WUHU216DAVISVP2,2013-04-26 13:11:00,
2013-04-26 08:16:00,52.4,39.3,30.39,ESE,108,2.0,4.0,61,0.00,,,0.00,WUHU216DAVISVP2,2013-04-26 13:16:00,
2013-04-26 08:21:00,52.4,39.3,30.39,South,182,2.0,4.0,61,0.00,,,0.00,WUHU216DAVISVP2,2013-04-26 13:21:00,
2013-04-26 08:26:00,52.5,40.8,30.39,ESE,119,1.0,4.0,64,0.00,,,0.00,WUHU216DAVISVP2,2013-04-26 13:26:00,
2013-04-26 08:31:00,52.6,40.5,30.39,SSE,156,2.0,3.0,63,0.00,,,0.00,WUHU216DAVISVP2,2013-04-26 13:31:00,
2013-04-26 08:36:00,52.5,40.0,30.39,SE,146,2.0,3.0,62,0.00,,,0.00,WUHU216DAVISVP2,2013-04-26 13:36:00,
2013-04-26 08:41:00,52.4,40.3,30.40,ESE,103,0.0,3.0,63,0.00,,,0.00,WUHU216DAVISVP2,2013-04-26 13:41:00,
2013-04-26 08:46:00,52.4,40.3,30.40,SSE,158,0.0,2.0,63,0.00,,,0.00,WUHU216DAVISVP2,2013-04-26 13:46:00,
2013-04-26 08:51:00,52.4,41.1,30.40,SSE,152,1.0,4.0,65,0.00,,,0.00,WUHU216DAVISVP2,2013-04-26 13:51:00,
2013-04-26 08:56:00,52.3,41.0,30.41,South,181,3.0,4.0,65,0.00,,,0.00,WUHU216DAVISVP2,2013-04-26 13:56:00,
2013-04-26 09:01:00,52.3,41.7,30.41,SSE,162,0.0,3.0,67,0.00,,,0.00,WUHU216DAVISVP2,2013-04-26 14:01:00,
2013-04-26 09:06:00,52.3,40.6,30.41,SE,142,2.0,5.0,64,0.00,,,0.00,WUHU216DAVISVP2,2013-04-26 14:06:00,
2013-04-26 09:11:00,52.2,40.9,30.42,South,183,4.0,5.0,65,0.00,,,0.00,WUHU216DAVISVP2,2013-04-26 14:11:00,
2013-04-26 09:16:00,52.2,40.5,30.42,South,174,2.0,5.0,64,0.00,,,0.00,WUHU216DAVISVP2,2013-04-26 14:16:00,
2013-04-26 09:21:00,52.1,40.8,30.42,South,172,3.0,5.0,65,0.00,,,0.00,WUHU216DAVISVP2,2013-04-26 14:21:00,
2013-04-26 09:26:00,52.2,40.9,30.42,SSE,165,5.0,6.0,65,0.00,,,0.00,WUHU216DAVISVP2,2013-04-26 14:26:00,
2013-04-26 09:31:00,52.1,41.2,30.42,SSW,198,2.0,7.0,66,0.00,,,0.00,WUHU216DAVISVP2,2013-04-26 14:31:00,
2013-04-26 09:36:00,52.1,41.6,30.42,South,183,5.0,7.0,67,0.00,,,0.00,WUHU216DAVISVP2,2013-04-26 14:36:00,
2013-04-26 09:41:00,52.1,41.9,30.42,SSW,204,7.0,8.0,68,0.00,,,0.00,WUHU216DAVISVP2,2013-04-26 14:41:00,
2013-04-26 09:46:00,52.2,41.6,30.42,South,189,4.0,8.0,67,0.00,,,0.00,WUHU216DAVISVP2,2013-04-26 14:46:00,
2013-04-26 09:51:00,52.2,40.9,30.41,SSW,212,4.0,10.0,65,0.00,,,0.00,WUHU216DAVISVP2,2013-04-26 14:51:00,
2013-04-26 09:56:00,52.4,41.5,30.41,SSE,167,5.0,10.0,66,0.00,,,0.00,WUHU216DAVISVP2,2013-04-26 14:56:00,
2013-04-26 10:01:00,52.5,41.2,30.41,SSE,155,4.0,9.0,65,0.00,,,0.00,WUHU216DAVISVP2,2013-04-26 15:01:00,
2013-04-26 10:06:00,52.6,41.3,30.41,SE,139,1.0,9.0,65,0.00,,,0.00,WUHU216DAVISVP2,2013-04-26 15:06:00,
2013-04-26 10:11:00,52.9,42.0,30.41,SSW,195,2.0,8.0,66,0.00,,,0.00,WUHU216DAVISVP2,2013-04-26 15:11:00,
2013-04-26 10:16:00,53.0,41.7,30.41,SSE,158,2.0,5.0,65,0.00,,,0.00,WUHU216DAVISVP2,2013-04-26 15:16:00,
2013-04-26 10:21:00,53.1,41.8,30.41,SSE,162,2.0,5.0,65,0.00,,,0.00,WUHU216DAVISVP2,2013-04-26 15:21:00,
2013-04-26 10:26:00,53.2,41.3,30.41,South,176,4.0,5.0,64,0.00,,,0.00,WUHU216DAVISVP2,2013-04-26 15:26:00,
2013-04-26 10:31:00,53.2,41.7,30.41,SE,133,0.0,6.0,65,0.00,,,0.00,WUHU216DAVISVP2,2013-04-26 15:31:00,
2013-04-26 10:36:00,53.4,41.9,30.42,South,186,5.0,6.0,65,0.00,,,0.00,WUHU216DAVISVP2,2013-04-26 15:36:00,
2013-04-26 10:41:00,53.6,42.2,30.42,SSE,148,0.0,5.0,65,0.00,,,0.00,WUHU216DAVISVP2,2013-04-26 15:41:00,
2013-04-26 10:46:00,53.8,42.0,30.42,South,184,4.0,4.0,64,0.00,,,0.00,WUHU216DAVISVP2,2013-04-26 15:46:00,
2013-04-26 10:51:00,53.8,42.4,30.42,South,170,1.0,5.0,65,0.00,,,0.00,WUHU216DAVISVP2,2013-04-26 15:51:00,
2013-04-26 10:56:00,54.0,42.6,30.42,SSW,203,2.0,4.0,65,0.00,,,0.00,WUHU216DAVISVP2,2013-04-26 15:56:00,
2013-04-26 11:01:00,54.2,42.4,30.42,South,185,4.0,6.0,64,0.00,,,0.00,WUHU216DAVISVP2,2013-04-26 16:01:00,
2013-04-26 11:06:00,54.4,42.6,30.42,SE,128,1.0,6.0,64,0.00,,,0.00,WUHU216DAVISVP2,2013-04-26 16:06:00,
2013-04-26 11:11:00,54.5,42.7,30.42,SSE,167,2.0,5.0,64,0.00,,,0.00,WUHU216DAVISVP2,2013-04-26 16:11:00,
2013-04-26 11:16:00,54.6,42.7,30.42,ESE,110,0.0,4.0,64,0.00,,,0.00,WUHU216DAVISVP2,2013-04-26 16:16:00,
2013-04-26 11:21:00,54.7,43.2,30.42,SE,130,1.0,4.0,65,0.00,,,0.00,WUHU216DAVISVP2,2013-04-26 16:21:00,
2013-04-26 11:26:00,55.0,43.4,30.42,South,184,1.0,4.0,65,0.00,,,0.00,WUHU216DAVISVP2,2013-04-26 16:26:00,
2013-04-26 11:31:00,55.5,43.6,30.42,SSE,151,1.0,4.0,64,0.00,,,0.00,WUHU216DAVISVP2,2013-04-26 16:31:00,
2013-04-26 11:36:00,56.0,43.7,30.42,SSE,166,3.0,4.0,63,0.00,,,0.00,WUHU216DAVISVP2,2013-04-26 16:36:00,
2013-04-26 11:41:00,56.4,43.7,30.42,South,172,5.0,7.0,62,0.00,,,0.00,WUHU216DAVISVP2,2013-04-26 16:41:00,
2013-04-26 11:46:00,56.8,44.0,30.42,South,177,8.0,8.0,62,0.00,,,0.00,WUHU216DAVISVP2,2013-04-26 16:46:00,
2013-04-26 11:51:00,57.2,45.3,30.41,South,186,5.0,8.0,64,0.00,,,0.00,WUHU216DAVISVP2,2013-04-26 16:51:00,
2013-04-26 11:56:00,57.3,44.1,30.41,SSW,205,6.0,9.0,61,0.00,,,0.00,WUHU216DAVISVP2,2013-04-26 16:56:00,
2013-04-26 12:01:00,57.4,44.2,30.40,SE,143,2.0,9.0,61,0.00,,,0.00,WUHU216DAVISVP2,2013-04-26 17:01:00,
2013-04-26 12:06:00,57.8,45.0,30.40,South,191,6.0,8.0,62,0.00,,,0.00,WUHU216DAVISVP2,2013-04-26 17:06:00,
2013-04-26 12:11:00,57.9,44.2,30.40,SW,214,7.0,9.0,60,0.00,,,0.00,WUHU216DAVISVP2,2013-04-26 17:11:00,
2013-04-26 12:16:00,57.9,44.2,30.39,SSW,210,8.0,11.0,60,0.00,,,0.00,WUHU216DAVISVP2,2013-04-26 17:16:00,
2013-04-26 12:21:00,58.4,44.7,30.39,South,183,7.0,11.0,60,0.00,,,0.00,WUHU216DAVISVP2,2013-04-26 17:21:00,
2013-04-26 12:26:00,58.9,45.6,30.39,SSE,164,7.0,11.0,61,0.00,,,0.00,WUHU216DAVISVP2,2013-04-26 17:26:00,
2013-04-26 12:31:00,59.1,45.4,30.39,SSW,211,10.0,13.0,60,0.00,,,0.00,WUHU216DAVISVP2,2013-04-26 17:31:00,
2013-04-26 12:36:00,59.1,45.2,30.38,SSW,207,10.0,17.0,60,0.00,,,0.00,WUHU216DAVISVP2,2013-04-26 17:36:00,
2013-04-26 12:41:00,58.8,44.9,30.38,SSW,203,11.0,17.0,60,0.00,,,0.00,WUHU216DAVISVP2,2013-04-26 17:41:00,
2013-04-26 12:46:00,58.5,45.5,30.38,SSW,201,13.0,17.0,62,0.00,,,0.00,WUHU216DAVISVP2,2013-04-26 17:46:00,
2013-04-26 12:51:00,58.2,45.8,30.37,SSW,199,11.0,17.0,63,0.00,,,0.00,WUHU216DAVISVP2,2013-04-26 17:51:00,
2013-04-26 12:56:00,57.8,45.4,30.37,SSW,192,11.0,18.0,63,0.00,,,0.00,WUHU216DAVISVP2,2013-04-26 17:56:00,
2013-04-26 13:01:00,57.5,45.1,30.37,South,186,10.0,18.0,63,0.00,,,0.00,WUHU216DAVISVP2,2013-04-26 18:01:00,
2013-04-26 13:06:00,57.2,45.3,30.37,SSW,201,10.0,18.0,64,0.00,,,0.00,WUHU216DAVISVP2,2013-04-26 18:06:00,
2013-04-26 13:11:00,56.8,45.7,30.37,SSE,159,15.0,17.0,66,0.00,,,0.00,WUHU216DAVISVP2,2013-04-26 18:11:00,
2013-04-26 13:16:00,56.5,45.4,30.37,SSW,207,9.0,16.0,66,0.00,,,0.00,WUHU216DAVISVP2,2013-04-26 18:16:00,
2013-04-26 13:21:00,56.1,45.4,30.37,South,181,11.0,15.0,67,0.00,,,0.00,WUHU216DAVISVP2,2013-04-26 18:21:00,
2013-04-26 13:26:00,55.9,45.2,30.37,SSW,193,8.0,15.0,67,0.00,,,0.00,WUHU216DAVISVP2,2013-04-26 18:26:00,
2013-04-26 13:31:00,55.7,45.8,30.38,SSE,160,8.0,13.0,69,0.00,,,0.00,WUHU216DAVISVP2,2013-04-26 18:31:00,
2013-04-26 13:36:00,55.5,45.6,30.38,South,190,10.0,13.0,69,0.00,,,0.00,WUHU216DAVISVP2,2013-04-26 18:36:00,
2013-04-26 13:41:00,55.4,45.5,30.38,SSW,210,8.0,13.0,69,0.00,,,0.00,WUHU216DAVISVP2,2013-04-26 18:41:00,
2013-04-26 13:46:00,55.4,45.9,30.38,South,181,5.0,12.0,70,0.00,,,0.00,WUHU216DAVISVP2,2013-04-26 18:46:00,
2013-04-26 13:51:00,55.4,46.2,30.38,SW,226,9.0,11.0,71,0.00,,,0.00,WUHU216DAVISVP2,2013-04-26 18:51:00,
2013-04-26 13:56:00,55.3,46.4,30.38,SSW,199,7.0,11.0,72,0.00,,,0.00,WUHU216DAVISVP2,2013-04-26 18:56:00,
2013-04-26 14:01:00,55.3,46.1,30.39,South,180,5.0,10.0,71,0.00,,,0.00,WUHU216DAVISVP2,2013-04-26 19:01:00,
2013-04-26 14:06:00,55.5,47.3,30.39,SW,221,5.0,10.0,74,0.00,,,0.00,WUHU216DAVISVP2,2013-04-26 19:06:00,
2013-04-26 14:11:00,55.5,47.1,30.39,South,176,8.0,10.0,73,0.00,,,0.00,WUHU216DAVISVP2,2013-04-26 19:11:00,
2013-04-26 14:16:00,55.5,46.7,30.39,SW,217,6.0,8.0,72,0.00,,,0.00,WUHU216DAVISVP2,2013-04-26 19:16:00,
2013-04-26 14:21:00,55.5,47.1,30.39,SW,214,4.0,8.0,73,0.00,,,0.00,WUHU216DAVISVP2,2013-04-26 19:21:00,
2013-04-26 14:26:00,55.5,47.8,30.39,SSW,192,4.0,9.0,75,0.00,,,0.00,WUHU216DAVISVP2,2013-04-26 19:26:00,
2013-04-26 14:31:00,55.2,47.2,30.39,South,174,4.0,9.0,74,0.00,,,0.00,WUHU216DAVISVP2,2013-04-26 19:31:00,
2013-04-26 14:36:00,54.9,47.2,30.39,SSE,160,7.0,9.0,75,0.00,,,0.00,WUHU216DAVISVP2,2013-04-26 19:36:00,
2013-04-26 14:41:00,54.7,47.4,30.39,South,182,7.0,10.0,76,0.00,,,0.00,WUHU216DAVISVP2,2013-04-26 19:41:00,
2013-04-26 14:46:00,54.5,47.5,30.39,SSE,157,3.0,10.0,77,0.00,,,0.00,WUHU216DAVISVP2,2013-04-26 19:46:00,
2013-04-26 14:51:00,54.4,47.1,30.39,WSW,249,4.0,9.0,76,0.00,,,0.00,WUHU216DAVISVP2,2013-04-26 19:51:00,
2013-04-26 14:56:00,54.2,47.5,30.38,South,176,5.0,9.0,78,0.00,,,0.00,WUHU216DAVISVP2,2013-04-26 19:56:00,
2013-04-26 15:01:00,54.1,47.8,30.37,SE,134,0.0,9.0,79,0.00,,,0.00,WUHU216DAVISVP2,2013-04-26 20:01:00,
2013-04-26 15:06:00,54.0,47.4,30.36,SE,134,1.0,6.0,78,0.00,,,0.00,WUHU216DAVISVP2,2013-04-26 20:06:00,
2013-04-26 15:11:00,54.0,47.7,30.35,ESE,120,0.0,4.0,79,0.00,,,0.00,WUHU216DAVISVP2,2013-04-26 20:11:00,
2013-04-26 15:16:00,53.9,47.3,30.35,SSE,151,2.0,4.0,78,0.00,,,0.00,WUHU216DAVISVP2,2013-04-26 20:16:00,
2013-04-26 15:21:00,53.9,47.6,30.36,SE,136,1.0,4.0,79,0.00,,,0.00,WUHU216DAVISVP2,2013-04-26 20:21:00,
2013-04-26 15:26:00,53.9,47.6,30.36,South,175,2.0,3.0,79,0.00,,,0.00,WUHU216DAVISVP2,2013-04-26 20:26:00,
2013-04-26 15:31:00,53.9,47.9,30.36,South,169,2.0,4.0,80,0.00,,,0.00,WUHU216DAVISVP2,2013-04-26 20:31:00,
2013-04-26 15:36:00,54.0,47.6,30.35,ESE,123,1.0,4.0,79,0.00,,,0.00,WUHU216DAVISVP2,2013-04-26 20:36:00,
2013-04-26 15:41:00,54.2,47.8,30.35,South,187,1.0,3.0,79,0.00,,,0.00,WUHU216DAVISVP2,2013-04-26 20:41:00,
2013-04-26 15:46:00,54.5,47.4,30.35,ESE,104,4.0,4.0,77,0.00,,,0.00,WUHU216DAVISVP2,2013-04-26 20:46:00,
2013-04-26 15:51:00,54.5,47.5,30.33,ENE,77,5.0,8.0,77,0.00,,,0.00,WUHU216DAVISVP2,2013-04-26 20:51:00,
2013-04-26 15:56:00,54.9,47.9,30.33,ENE,76,6.0,8.0,77,0.00,,,0.00,WUHU216DAVISVP2,2013-04-26 20:56:00,
2013-04-26 16:01:00,55.3,47.9,30.32,East,96,5.0,8.0,76,0.00,,,0.00,WUHU216DAVISVP2,2013-04-26 21:01:00,
2013-04-26 16:06:00,55.4,48.4,30.32,ENE,62,4.0,8.0,77,0.00,,,0.00,WUHU216DAVISVP2,2013-04-26 21:06:00,
2013-04-26 16:11:00,55.5,47.8,30.32,East,82,3.0,7.0,75,0.00,,,0.00,WUHU216DAVISVP2,2013-04-26 21:11:00,
2013-04-26 16:16:00,55.9,48.2,30.32,East,98,4.0,6.0,75,0.00,,,0.00,WUHU216DAVISVP2,2013-04-26 21:16:00,
2013-04-26 16:21:00,56.0,47.9,30.32,SE,129,0.0,9.0,74,0.00,,,0.00,WUHU216DAVISVP2,2013-04-26 21:21:00,
2013-04-26 16:26:00,56.1,47.7,30.31,SE,137,3.0,9.0,73,0.00,,,0.00,WUHU216DAVISVP2,2013-04-26 21:26:00,
2013-04-26 16:31:00,56.0,47.6,30.32,SE,136,0.0,7.0,73,0.00,,,0.00,WUHU216DAVISVP2,2013-04-26 21:31:00,
2013-04-26 16:36:00,56.5,48.8,30.32,SSE,162,3.0,7.0,75,0.00,,,0.00,WUHU216DAVISVP2,2013-04-26 21:36:00,
2013-04-26 16:41:00,56.4,48.0,30.31,SSE,158,1.0,5.0,73,0.00,,,0.00,WUHU216DAVISVP2,2013-04-26 21:41:00,
2013-04-26 16:46:00,56.3,48.2,30.32,South,170,3.0,5.0,74,0.00,,,0.00,WUHU216DAVISVP2,2013-04-26 21:46:00,
2013-04-26 16:51:00,56.6,48.5,30.32,SE,143,3.0,6.0,74,0.00,,,0.00,WUHU216DAVISVP2,2013-04-26 21:51:00,
2013-04-26 16:56:00,57.2,48.0,30.32,SE,136,3.0,6.0,71,0.00,,,0.00,WUHU216DAVISVP2,2013-04-26 21:56:00,
2013-04-26 17:01:00,57.0,47.8,30.31,South,172,3.0,5.0,71,0.00,,,0.00,WUHU216DAVISVP2,2013-04-26 22:01:00,
2013-04-26 17:06:00,57.0,47.8,30.32,SE,125,3.0,5.0,71,0.00,,,0.00,WUHU216DAVISVP2,2013-04-26 22:06:00,
2013-04-26 17:11:00,56.8,48.0,30.32,SSE,155,2.0,4.0,72,0.00,,,0.00,WUHU216DAVISVP2,2013-04-26 22:11:00,
2013-04-26 17:16:00,56.7,47.4,30.32,SSE,154,3.0,6.0,71,0.00,,,0.00,WUHU216DAVISVP2,2013-04-26 22:16:00,
2013-04-26 17:21:00,56.7,47.5,30.31,SE,124,2.0,6.0,71,0.00,,,0.00,WUHU216DAVISVP2,2013-04-26 22:21:00,
2013-04-26 17:26:00,56.9,48.4,30.32,SSE,155,2.0,3.0,73,0.00,,,0.00,WUHU216DAVISVP2,2013-04-26 22:26:00,
2013-04-26 17:31:00,57.0,47.4,30.32,South,188,2.0,4.0,70,0.00,,,0.00,WUHU216DAVISVP2,2013-04-26 22:31:00,
2013-04-26 17:36:00,56.9,47.3,30.33,South,186,5.0,5.0,70,0.00,,,0.00,WUHU216DAVISVP2,2013-04-26 22:36:00,
2013-04-26 17:41:00,56.6,47.4,30.33,SSW,197,6.0,6.0,71,0.00,,,0.00,WUHU216DAVISVP2,2013-04-26 22:41:00,
2013-04-26 17:46:00,56.3,46.8,30.34,SSW,197,3.0,6.0,70,0.00,,,0.00,WUHU216DAVISVP2,2013-04-26 22:46:00,
2013-04-26 17:51:00,56.2,47.8,30.34,South,176,2.0,6.0,73,0.00,,,0.00,WUHU216DAVISVP2,2013-04-26 22:51:00,
2013-04-26 17:56:00,56.1,46.9,30.34,South,182,7.0,8.0,71,0.00,,,0.00,WUHU216DAVISVP2,2013-04-26 22:56:00,
2013-04-26 18:01:00,55.9,46.4,30.34,SSE,165,4.0,8.0,70,0.00,,,0.00,WUHU216DAVISVP2,2013-04-26 23:01:00,
2013-04-26 18:06:00,55.8,47.0,30.33,SE,136,0.0,7.0,72,0.00,,,0.00,WUHU216DAVISVP2,2013-04-26 23:06:00,
2013-04-26 18:11:00,55.7,46.9,30.33,South,190,1.0,4.0,72,0.00,,,0.00,WUHU216DAVISVP2,2013-04-26 23:11:00,
2013-04-26 18:17:00,55.6,46.5,30.32,SE,143,0.0,4.0,71,0.00,,,0.00,WUHU216DAVISVP2,2013-04-26 23:17:00,
2013-04-26 18:22:00,55.5,46.4,30.32,SE,131,1.0,4.0,71,0.00,,,0.00,WUHU216DAVISVP2,2013-04-26 23:22:00,
2013-04-26 18:27:00,55.5,46.7,30.32,SSW,200,2.0,4.0,72,0.00,,,0.00,WUHU216DAVISVP2,2013-04-26 23:27:00,
2013-04-26 18:32:00,55.4,46.9,30.32,SE,131,1.0,3.0,73,0.00,,,0.00,WUHU216DAVISVP2,2013-04-26 23:32:00,
2013-04-26 18:37:00,55.2,46.8,30.32,ESE,117,0.0,3.0,73,0.00,,,0.00,WUHU216DAVISVP2,2013-04-26 23:37:00,
2013-04-26 18:42:00,55.1,47.1,30.32,SW,217,4.0,4.0,74,0.00,,,0.00,WUHU216DAVISVP2,2013-04-26 23:42:00,
2013-04-26 18:47:00,55.0,47.0,30.33,SSE,158,1.0,4.0,74,0.00,,,0.00,WUHU216DAVISVP2,2013-04-26 23:47:00,
2013-04-26 18:52:00,54.9,46.9,30.32,South,179,1.0,2.0,74,0.00,,,0.00,WUHU216DAVISVP2,2013-04-26 23:52:00,
2013-04-26 19:05:00,54.8,46.8,30.33,SSE,150,2.0,3.0,74,0.00,,,0.00,WUHU216DAVISVP2,2013-04-27 00:05:00,
2013-04-26 19:10:00,54.5,46.8,30.32,SSE,152,1.0,3.0,75,0.00,,,0.00,WUHU216DAVISVP2,2013-04-27 00:10:00,
2013-04-26 19:15:00,54.4,47.0,30.32,SSE,155,3.0,3.0,76,0.00,,,0.00,WUHU216DAVISVP2,2013-04-27 00:15:00,
2013-04-26 19:20:00,54.4,47.1,30.32,South,170,4.0,5.0,76,0.00,,,0.00,WUHU216DAVISVP2,2013-04-27 00:20:00,
2013-04-26 19:25:00,54.3,47.0,30.31,SSE,155,1.0,5.0,76,0.00,,,0.00,WUHU216DAVISVP2,2013-04-27 00:25:00,
2013-04-26 19:30:00,54.1,47.1,30.31,South,169,1.0,4.0,77,0.00,,,0.00,WUHU216DAVISVP2,2013-04-27 00:30:00,
2013-04-26 19:35:00,54.1,47.0,30.31,East,91,1.0,3.0,77,0.00,,,0.00,WUHU216DAVISVP2,2013-04-27 00:35:00,
2013-04-26 19:40:00,54.0,47.0,30.31,SSW,195,3.0,3.0,77,0.00,,,0.00,WUHU216DAVISVP2,2013-04-27 00:40:00,
2013-04-26 19:45:00,53.9,47.3,30.30,SSE,147,0.0,3.0,78,0.00,,,0.00,WUHU216DAVISVP2,2013-04-27 00:45:00,
2013-04-26 19:50:00,53.8,47.2,30.29,SE,146,0.0,2.0,78,0.00,,,0.00,WUHU216DAVISVP2,2013-04-27 00:50:00,
2013-04-26 19:55:00,53.6,47.3,30.27,SE,128,1.0,2.0,79,0.00,,,0.00,WUHU216DAVISVP2,2013-04-27 00:55:00,
2013-04-26 20:00:00,53.5,47.2,30.26,SE,125,3.0,6.0,79,0.00,,,0.00,WUHU216DAVISVP2,2013-04-27 01:00:00,
2013-04-26 20:05:00,53.5,47.1,30.26,ESE,103,1.0,6.0,79,0.00,,,0.00,WUHU216DAVISVP2,2013-04-27 01:05:00,
2013-04-26 20:10:00,53.5,46.8,30.27,ESE,114,0.0,5.0,78,0.00,,,0.00,WUHU216DAVISVP2,2013-04-27 01:10:00,
2013-04-26 20:15:00,53.5,46.9,30.27,SE,146,0.0,3.0,78,0.00,,,0.00,WUHU216DAVISVP2,2013-04-27 01:15:00,
2013-04-26 20:20:00,53.4,47.1,30.29,NNE,16,0.0,3.0,79,0.00,,,0.00,WUHU216DAVISVP2,2013-04-27 01:20:00,
2013-04-26 20:25:00,53.4,47.1,30.29,East,79,0.0,3.0,79,0.00,,,0.00,WUHU216DAVISVP2,2013-04-27 01:25:00,
2013-04-26 20:30:00,53.3,47.0,30.29,East,79,0.0,2.0,79,0.00,,,0.00,WUHU216DAVISVP2,2013-04-27 01:30:00,
2013-04-26 20:35:00,53.3,47.0,30.30,East,80,1.0,1.0,79,0.00,,,0.00,WUHU216DAVISVP2,2013-04-27 01:35:00,
2013-04-26 20:40:00,53.3,47.3,30.31,SW,236,1.0,1.0,80,0.00,,,0.00,WUHU216DAVISVP2,2013-04-27 01:40:00,
2013-04-26 20:45:00,53.2,47.2,30.32,SW,236,0.0,1.0,80,0.00,,,0.00,WUHU216DAVISVP2,2013-04-27 01:45:00,
2013-04-26 20:50:00,53.1,47.5,30.33,SW,236,0.0,1.0,81,0.00,,,0.00,WUHU216DAVISVP2,2013-04-27 01:50:00,
2013-04-26 20:55:00,53.0,47.7,30.34,SW,236,0.0,1.0,82,0.00,,,0.00,WUHU216DAVISVP2,2013-04-27 01:55:00,
2013-04-26 21:00:00,53.0,47.7,30.36,WSW,243,1.0,1.0,82,0.00,,,0.00,WUHU216DAVISVP2,2013-04-27 02:00:00,
2013-04-26 21:05:00,52.9,47.9,30.36,West,274,1.0,1.0,83,0.00,,,0.00,WUHU216DAVISVP2,2013-04-27 02:05:00,
2013-04-26 21:10:00,52.8,48.1,30.37,SSW,198,2.0,3.0,84,0.00,,,0.00,WUHU216DAVISVP2,2013-04-27 02:10:00,
2013-04-26 21:15:00,52.6,47.9,30.37,SW,224,2.0,4.0,84,0.00,,,0.00,WUHU216DAVISVP2,2013-04-27 02:15:00,
2013-04-26 21:20:00,52.5,48.1,30.36,SW,236,2.0,4.0,85,0.00,,,0.00,WUHU216DAVISVP2,2013-04-27 02:20:00,
2013-04-26 21:25:00,52.5,47.8,30.36,SSW,194,3.0,3.0,84,0.00,,,0.00,WUHU216DAVISVP2,2013-04-27 02:25:00,
2013-04-26 21:30:00,52.4,47.7,30.35,SSW,199,1.0,3.0,84,0.00,,,0.00,WUHU216DAVISVP2,2013-04-27 02:30:00,
2013-04-26 21:35:00,52.4,47.7,30.35,SSW,205,1.0,3.0,84,0.00,,,0.00,WUHU216DAVISVP2,2013-04-27 02:35:00,
2013-04-26 21:40:00,52.4,47.7,30.34,SSW,197,3.0,3.0,84,0.00,,,0.00,WUHU216DAVISVP2,2013-04-27 02:40:00,
2013-04-26 21:45:00,52.3,47.6,30.33,SSE,160,0.0,3.0,84,0.00,,,0.00,WUHU216DAVISVP2,2013-04-27 02:45:00,
2013-04-26 21:50:00,52.2,47.8,30.33,SSE,160,0.0,2.0,85,0.00,,,0.00,WUHU216DAVISVP2,2013-04-27 02:50:00,
2013-04-26 21:55:00,52.2,47.8,30.32,ESE,116,0.0,0.0,85,0.00,,,0.00,WUHU216DAVISVP2,2013-04-27 02:55:00,
2013-04-26 22:00:00,52.2,47.8,30.33,ESE,116,0.0,0.0,85,0.00,,,0.00,WUHU216DAVISVP2,2013-04-27 03:00:00,
2013-04-26 22:05:00,52.1,47.7,30.32,ESE,116,0.0,0.0,85,0.00,,,0.00,WUHU216DAVISVP2,2013-04-27 03:05:00,
2013-04-26 22:10:00,52.0,47.6,30.32,ESE,116,0.0,0.0,85,0.00,,,0.00,WUHU216DAVISVP2,2013-04-27 03:10:00,
2013-04-26 22:15:00,52.0,47.9,30.32,East,82,0.0,0.0,86,0.00,,,0.00,WUHU216DAVISVP2,2013-04-27 03:15:00,
2013-04-26 22:20:00,52.0,47.6,30.32,ENE,63,0.0,0.0,85,0.00,,,0.00,WUHU216DAVISVP2,2013-04-27 03:20:00,
2013-04-26 22:25:00,52.0,47.9,30.32,NE,50,0.0,0.0,86,0.00,,,0.00,WUHU216DAVISVP2,2013-04-27 03:25:00,
2013-04-26 22:30:00,52.0,48.2,30.33,NNW,344,1.0,2.0,87,0.00,,,0.00,WUHU216DAVISVP2,2013-04-27 03:30:00,
2013-04-26 22:35:00,51.8,48.0,30.32,NNW,334,3.0,3.0,87,0.00,,,0.00,WUHU216DAVISVP2,2013-04-27 03:35:00,
2013-04-26 22:40:00,51.8,48.6,30.33,NW,324,0.0,3.0,89,0.00,,,0.00,WUHU216DAVISVP2,2013-04-27 03:40:00,
2013-04-26 22:45:00,51.7,48.2,30.32,NW,323,0.0,3.0,88,0.00,,,0.00,WUHU216DAVISVP2,2013-04-27 03:45:00,
2013-04-26 22:50:00,51.6,48.1,30.33,NW,323,0.0,1.0,88,0.00,,,0.00,WUHU216DAVISVP2,2013-04-27 03:50:00,
2013-04-26 22:55:00,51.6,48.1,30.33,SW,229,1.0,1.0,88,0.00,,,0.00,WUHU216DAVISVP2,2013-04-27 03:55:00,
2013-04-26 23:00:00,51.6,48.2,30.33,South,177,1.0,2.0,88,0.00,,,0.00,WUHU216DAVISVP2,2013-04-27 04:00:00,
2013-04-26 23:01:00,51.6,48.2,30.33,South,177,1.0,2.0,88,0.00,,,0.00,WUHU216DAVISVP2,2013-04-27 04:01:00,
2013-04-26 23:06:00,51.6,48.1,30.30,SSE,160,0.0,2.0,88,0.00,,,0.00,WUHU216DAVISVP2,2013-04-27 04:06:00,
2013-04-26 23:11:00,51.5,48.0,30.30,ENE,70,0.0,2.0,88,0.00,,,0.00,WUHU216DAVISVP2,2013-04-27 04:11:00,
2013-04-26 23:16:00,51.4,47.9,30.31,ENE,70,0.0,2.0,88,0.00,,,0.00,WUHU216DAVISVP2,2013-04-27 04:16:00,
2013-04-26 23:21:00,51.5,48.1,30.31,South,178,1.0,2.0,88,0.00,,,0.00,WUHU216DAVISVP2,2013-04-27 04:21:00,
2013-04-26 23:26:00,51.6,48.1,30.31,South,186,2.0,2.0,88,0.00,,,0.00,WUHU216DAVISVP2,2013-04-27 04:26:00,
2013-04-26 23:31:00,51.6,48.1,30.32,SW,221,6.0,6.0,88,0.00,,,0.00,WUHU216DAVISVP2,2013-04-27 04:31:00,
2013-04-26 23:36:00,51.4,48.2,30.33,SSW,210,3.0,7.0,89,0.00,,,0.00,WUHU216DAVISVP2,2013-04-27 04:36:00,
2013-04-26 23:41:00,51.3,48.4,30.33,SSW,205,1.0,7.0,90,0.00,,,0.00,WUHU216DAVISVP2,2013-04-27 04:41:00,
2013-04-26 23:46:00,51.2,48.0,30.33,SSW,206,0.0,3.0,89,0.00,,,0.00,WUHU216DAVISVP2,2013-04-27 04:46:00,
2013-04-26 23:51:00,51.2,48.3,30.33,SSW,206,0.0,3.0,90,0.00,,,0.00,WUHU216DAVISVP2,2013-04-27 04:51:00,
2013-04-26 23:56:00,51.1,48.3,30.33,NE,34,0.0,1.0,90,0.00,,,0.00,WUHU216DAVISVP2,2013-04-27 04:56:00,